World > North America > United States > Connecticut
Hourly regional weather for Guilford, ConnecticutGuilford, Connecticut Regional Hourly Weather

Guilford, Connecticut Regional Weather

regional weather guilford, ctHOURLY REGIONAL WEATHER FOR GUILFORD, CT
Lat: 41.28N, Lon: 72.68W 
Web Search

Helpful Tip: Type the letters wx in the search engine next time you need to find us.

Feedback


°F Click to change Guilford hourly weather to Imperial units.Click to change Guilford hourly weather to Metric units. °C
Guilford Weather Map
UTC Time: 11/30/2021, 03:10
Your Time:

Guilford, CT Regional Weather

Expires:202111300400;;645619
ASUS41 KOKX 300305
RWROKX

Regional Weather Roundup
National Weather Service New York NY
1000 PM EST MON NOV 29 2021

Note: "FAIR" indicates few or no clouds below 12,000 feet with no
significant weather and/or obstructions to visibility.


CTZ002-004>006-009-010-012-RIZ004-006-007-MAZ004-011-015-300400-
Southern New England

 In CT
  
CITY           SKY/WX    TMP DP  RH WIND       PRES   REMARKS
Bradley Intl   PTCLDY    30  18  60 NW9       29.95S WCI  22          
Hartford       CLEAR     32  18  56 NW5       29.97R WCI  27          
Danbury        CLEAR     32  21  64 CALM      29.98R                  
Wtrbury/Oxford CLEAR     28  18  66 NW8       29.94S WCI  20          
Norwalk Harbor   N/A     32 N/A N/A W9          N/A  WCI  24          
Bridgeport     CLEAR     31  23  72 NW6       29.99R WCI  25          
Meriden        CLEAR     30  18  60 NW6       29.97R WCI  24          
New Haven      CLEAR     34  22  61 NW7       29.97S WCI  28          
Chester        FAIR      30  19  64 MISG      29.94S                  
Groton         CLEAR     32  20  61 W9        29.95R WCI  24          
Willimantic    MOCLDY    31 N/A N/A NW6       29.93F WCI  25          

 In RI
  
CITY           SKY/WX    TMP DP  RH WIND       PRES   REMARKS
Providence     CLEAR     32  17  54 NW8       29.93S WCI  25          
Block Island   MOCLDY    32  22  66 N14G21    29.94S WCI  22          
Westerly       PTCLDY    29  20  69 CALM      29.94S                  
 
In MA
  
CITY           SKY/WX    TMP DP  RH WIND       PRES   REMARKS
Boston         CLEAR     30  13  49 W13       29.90S WCI  20          
Worcester      CLEAR     26  17  68 NW13      29.87S WCI  15          
Westfield      PTCLDY    29  18  63 NW7       29.94S WCI  22          
Provincetown   MOCLDY    35  23  61 NW16G24   29.88R WCI  25          
Nantucket      PTCLDY    37  22  54 NW20G28   29.87R WCI  27          
$$


SKY/WX - Weather  TMP - Temperature  DP - Dew Point  RH - Relative Humidity
WIND - Wind Direction/Speed PRES - Barometric Pressure VSB - Visibility
WCI - Wind Chill Index E13G22 Wind - East Wind 13 mph/Gusts of 22 mph